Tracking 20083 objects as of 9-Dec-2019
HD Live streaming from Space Station
objects crossing your sky now

FENGYUN 1C DEB

Track FENGYUN 1C DEB now!
10-day predictions


NORAD ID: 38518
Int'l Code: 1999-025ETD
Perigee: 747.1 km
Apogee: 791.3 km
Inclination: 99.2 °
Period: 100.1 minutes
Semi major axis: 7140 km
RCS: 0.0015 m2 (small)
Launch date: May 10, 1999
Source: People's Republic of China (PRC)
Launch site: Taiyaun Space Center, China (TSC)

Note: This is SATELLITE DEBRIS
aabbcc
Your satellite tracking list
Your tracking list is empty




NASA's NSSDC Master Catalog

Two Line Element Set (TLE):
1 38518U 99025ETD 19342.05353702  .00000951  00000-0  32283-3 0  9990
2 38518  99.1877 285.0349 0030961 130.3750 230.0146 14.38918457516836
Source of the keplerian elements: AFSPC